Year,Month,Day,Hour,Minute,Value (Times are PST for windspeed in km/hr)
2022,05,19,00,00,14.20
2022,05,19,00,01,12.00
2022,05,19,00,02,13.10
2022,05,19,00,03,12.50
2022,05,19,00,04,11.30
2022,05,19,00,05,13.30
2022,05,19,00,06,13.30
2022,05,19,00,07,10.60
2022,05,19,00,08,11.80
2022,05,19,00,09,13.20
2022,05,19,00,10,8.30
2022,05,19,00,11,10.50
2022,05,19,00,12,15.30
2022,05,19,00,13,14.40
2022,05,19,00,14,17.20
2022,05,19,00,15,13.20
2022,05,19,00,16,11.90
2022,05,19,00,17,16.10
2022,05,19,00,18,15.00
2022,05,19,00,19,11.60
2022,05,19,00,20,18.30
2022,05,19,00,21,18.40
2022,05,19,00,22,17.10
2022,05,19,00,23,16.30
2022,05,19,00,24,14.10
2022,05,19,00,25,18.80
2022,05,19,00,26,14.50
2022,05,19,00,27,14.40
2022,05,19,00,28,11.60
2022,05,19,00,29,12.00
2022,05,19,00,30,13.20
2022,05,19,00,31,10.80
2022,05,19,00,32,8.90
2022,05,19,00,33,9.20
2022,05,19,00,34,10.80
2022,05,19,00,35,16.20
2022,05,19,00,36,15.50
2022,05,19,00,37,11.10
2022,05,19,00,38,9.20
2022,05,19,00,39,10.10
2022,05,19,00,40,13.70
2022,05,19,00,41,9.50
2022,05,19,00,42,11.30
2022,05,19,00,43,11.30
2022,05,19,00,44,13.20
2022,05,19,00,45,15.00
2022,05,19,00,46,9.70
2022,05,19,00,47,9.20
2022,05,19,00,48,12.60
2022,05,19,00,49,10.80
2022,05,19,00,50,10.20
2022,05,19,00,51,7.30
2022,05,19,00,52,12.30
2022,05,19,00,53,9.90
2022,05,19,00,54,14.10
2022,05,19,00,55,12.40
2022,05,19,00,56,11.50
2022,05,19,00,57,17.10
2022,05,19,00,58,14.30
2022,05,19,00,59,12.40
2022,05,19,01,00,8.40
2022,05,19,01,01,16.00
2022,05,19,01,02,13.20
2022,05,19,01,03,11.20
2022,05,19,01,04,12.90
2022,05,19,01,05,19.80
2022,05,19,01,06,12.80
2022,05,19,01,07,21.20
2022,05,19,01,08,22.50
2022,05,19,01,09,13.40
2022,05,19,01,10,11.90
2022,05,19,01,11,13.40
2022,05,19,01,12,13.10
2022,05,19,01,13,13.70
2022,05,19,01,14,14.90
2022,05,19,01,15,11.00
2022,05,19,01,16,9.90
2022,05,19,01,17,13.30
2022,05,19,01,18,15.40
2022,05,19,01,19,11.50
2022,05,19,01,20,12.30
2022,05,19,01,21,16.50
2022,05,19,01,22,13.90
2022,05,19,01,23,13.10
2022,05,19,01,24,15.00
2022,05,19,01,25,13.10
2022,05,19,01,26,14.40
2022,05,19,01,27,11.40
2022,05,19,01,28,14.00
2022,05,19,01,29,13.30
2022,05,19,01,30,11.70
2022,05,19,01,31,14.00
2022,05,19,01,32,12.60
2022,05,19,01,33,14.90
2022,05,19,01,34,15.60
2022,05,19,01,35,9.80
2022,05,19,01,36,9.80
2022,05,19,01,37,10.40
2022,05,19,01,38,9.30
2022,05,19,01,39,9.20
2022,05,19,01,40,10.00
2022,05,19,01,41,12.20
2022,05,19,01,42,12.30
2022,05,19,01,43,12.20
2022,05,19,01,44,11.40
2022,05,19,01,45,13.80
2022,05,19,01,46,9.30
2022,05,19,01,47,14.40
2022,05,19,01,48,9.20
2022,05,19,01,49,8.60
2022,05,19,01,50,8.90
2022,05,19,01,51,11.60
2022,05,19,01,52,12.70
2022,05,19,01,53,15.60
2022,05,19,01,54,12.80
2022,05,19,01,55,14.00
2022,05,19,01,56,12.70
2022,05,19,01,57,15.40
2022,05,19,01,58,11.90
2022,05,19,01,59,8.10
2022,05,19,02,00,14.40
2022,05,19,02,01,12.30
2022,05,19,02,02,11.40
2022,05,19,02,03,10.80
2022,05,19,02,04,17.50
2022,05,19,02,05,12.80
2022,05,19,02,06,11.50
2022,05,19,02,07,12.30
2022,05,19,02,08,13.60
2022,05,19,02,09,14.20
2022,05,19,02,10,11.70
2022,05,19,02,11,12.50
2022,05,19,02,12,10.80
2022,05,19,02,13,13.80
2022,05,19,02,14,16.00
2022,05,19,02,15,9.30
2022,05,19,02,16,10.40
2022,05,19,02,17,9.20
2022,05,19,02,18,11.80
2022,05,19,02,19,10.70
2022,05,19,02,20,11.00
2022,05,19,02,21,7.00
2022,05,19,02,22,8.10
2022,05,19,02,23,12.10
2022,05,19,02,24,10.80
2022,05,19,02,25,6.70
2022,05,19,02,26,9.40
2022,05,19,02,27,9.20
2022,05,19,02,28,9.40
2022,05,19,02,29,11.50
2022,05,19,02,30,12.20
2022,05,19,02,31,9.80
2022,05,19,02,32,10.00
2022,05,19,02,33,11.50
2022,05,19,02,34,11.60
2022,05,19,02,35,11.90
2022,05,19,02,36,13.20
2022,05,19,02,37,11.60
2022,05,19,02,38,10.30
2022,05,19,02,39,11.60
2022,05,19,02,40,10.10
2022,05,19,02,41,8.50
2022,05,19,02,42,9.20
2022,05,19,02,43,6.90
2022,05,19,02,44,8.80
2022,05,19,02,45,9.90
2022,05,19,02,46,12.40
2022,05,19,02,47,11.70
2022,05,19,02,48,12.10
2022,05,19,02,49,11.10
2022,05,19,02,50,5.90
2022,05,19,02,51,7.30
2022,05,19,02,52,8.60
2022,05,19,02,53,10.30
2022,05,19,02,54,10.20
2022,05,19,02,55,11.20
2022,05,19,02,56,8.40
2022,05,19,02,57,4.60
2022,05,19,02,58,10.60
2022,05,19,02,59,7.20
2022,05,19,03,00,5.60
2022,05,19,03,01,5.80
2022,05,19,03,02,6.40
2022,05,19,03,03,8.60
2022,05,19,03,04,6.90
2022,05,19,03,05,8.40
2022,05,19,03,06,9.70
2022,05,19,03,07,7.90
2022,05,19,03,08,10.00
2022,05,19,03,09,10.20
2022,05,19,03,10,12.90
2022,05,19,03,11,12.30
2022,05,19,03,12,10.60
2022,05,19,03,13,9.60
2022,05,19,03,14,12.00
2022,05,19,03,15,10.50
2022,05,19,03,16,10.60
2022,05,19,03,17,9.90
2022,05,19,03,18,8.90
2022,05,19,03,19,9.80
2022,05,19,03,20,9.00
2022,05,19,03,21,10.10
2022,05,19,03,22,13.20
2022,05,19,03,23,10.80
2022,05,19,03,24,9.20
2022,05,19,03,25,11.40
2022,05,19,03,26,7.90
2022,05,19,03,27,13.90
2022,05,19,03,28,15.30
2022,05,19,03,29,12.40
2022,05,19,03,30,13.70
2022,05,19,03,31,14.20
2022,05,19,03,32,13.10
2022,05,19,03,33,9.60
2022,05,19,03,34,11.10
2022,05,19,03,35,13.90
2022,05,19,03,36,11.20
2022,05,19,03,37,9.10
2022,05,19,03,38,14.40
2022,05,19,03,39,10.60
2022,05,19,03,40,10.40
2022,05,19,03,41,8.90
2022,05,19,03,42,9.20
2022,05,19,03,43,8.60
2022,05,19,03,44,10.00
2022,05,19,03,45,12.40
2022,05,19,03,46,11.00
2022,05,19,03,47,11.80
2022,05,19,03,48,9.90
2022,05,19,03,49,9.40
2022,05,19,03,50,11.00
2022,05,19,03,51,9.80
2022,05,19,03,52,9.00
2022,05,19,03,53,10.10
2022,05,19,03,54,10.60
2022,05,19,03,55,9.30
2022,05,19,03,56,7.80
2022,05,19,03,57,6.10
2022,05,19,03,58,8.60
2022,05,19,03,59,12.30
2022,05,19,04,00,13.60
2022,05,19,04,01,13.60
2022,05,19,04,02,9.80
2022,05,19,04,03,8.10
2022,05,19,04,04,6.20
2022,05,19,04,05,9.30
2022,05,19,04,06,12.90
2022,05,19,04,07,9.20
2022,05,19,04,08,7.70
2022,05,19,04,09,8.10
2022,05,19,04,10,7.10
2022,05,19,04,11,7.60
2022,05,19,04,12,6.90
2022,05,19,04,13,7.20
2022,05,19,04,14,8.50
2022,05,19,04,15,8.20
2022,05,19,04,16,7.40
2022,05,19,04,17,7.00
2022,05,19,04,18,6.40
2022,05,19,04,19,3.50
2022,05,19,04,20,8.80
2022,05,19,04,21,7.50
2022,05,19,04,22,6.50
2022,05,19,04,23,3.20
2022,05,19,04,24,1.50
2022,05,19,04,25,0.10
2022,05,19,04,26,3.60
2022,05,19,04,27,0.10
2022,05,19,04,28,0.00
2022,05,19,04,29,1.80
2022,05,19,04,30,2.40
2022,05,19,04,31,0.10
2022,05,19,04,32,0.10
2022,05,19,04,33,5.30
2022,05,19,04,34,6.90
2022,05,19,04,35,8.10
2022,05,19,04,36,4.30
2022,05,19,04,37,5.10
2022,05,19,04,38,6.20
2022,05,19,04,39,8.10
2022,05,19,04,40,11.10
2022,05,19,04,41,10.40
2022,05,19,04,42,10.20
2022,05,19,04,43,10.30
2022,05,19,04,44,5.60
2022,05,19,04,45,7.80
2022,05,19,04,46,8.40
2022,05,19,04,47,4.70
2022,05,19,04,48,6.20
2022,05,19,04,49,8.10
2022,05,19,04,50,9.70
2022,05,19,04,51,9.20
2022,05,19,04,52,9.80
2022,05,19,04,53,8.60
2022,05,19,04,54,7.10
2022,05,19,04,55,9.20
2022,05,19,04,56,8.70
2022,05,19,04,57,8.40
2022,05,19,04,58,7.40
2022,05,19,04,59,5.90
2022,05,19,05,00,10.80
2022,05,19,05,01,9.30
2022,05,19,05,02,10.60
2022,05,19,05,03,11.60
2022,05,19,05,04,10.70
2022,05,19,05,05,8.70
2022,05,19,05,06,8.10
2022,05,19,05,07,8.20
2022,05,19,05,08,10.30
2022,05,19,05,09,9.50
2022,05,19,05,10,8.90
2022,05,19,05,11,10.30
2022,05,19,05,12,8.70
2022,05,19,05,13,10.00
2022,05,19,05,14,9.30
2022,05,19,05,15,9.30
2022,05,19,05,16,12.40
2022,05,19,05,17,12.30
2022,05,19,05,18,11.60
2022,05,19,05,19,12.60
2022,05,19,05,20,11.40
2022,05,19,05,21,11.80
2022,05,19,05,22,12.80
2022,05,19,05,23,11.80
2022,05,19,05,24,9.10
2022,05,19,05,25,10.40
2022,05,19,05,26,9.70
2022,05,19,05,27,8.50
2022,05,19,05,28,7.60
2022,05,19,05,29,10.20
2022,05,19,05,30,11.60
2022,05,19,05,31,10.50
2022,05,19,05,32,10.50
2022,05,19,05,33,13.90
2022,05,19,05,34,14.00
2022,05,19,05,35,10.00
2022,05,19,05,36,11.80
2022,05,19,05,37,8.20
2022,05,19,05,38,7.20
2022,05,19,05,39,8.40
2022,05,19,05,40,1.00
2022,05,19,05,41,3.20
2022,05,19,05,42,7.90
2022,05,19,05,43,7.20
2022,05,19,05,44,7.60
2022,05,19,05,45,7.30
2022,05,19,05,46,9.20
2022,05,19,05,47,7.60
2022,05,19,05,48,8.00
2022,05,19,05,49,5.20
2022,05,19,05,50,4.10
2022,05,19,05,51,4.90
2022,05,19,05,52,7.80
2022,05,19,05,53,8.60
2022,05,19,05,54,11.30
2022,05,19,05,55,7.60
2022,05,19,05,56,6.90
2022,05,19,05,57,5.10
2022,05,19,05,58,4.70
2022,05,19,05,59,7.30
2022,05,19,06,00,9.40
2022,05,19,06,01,7.60
2022,05,19,06,02,2.00
2022,05,19,06,03,1.50
2022,05,19,06,04,8.30
2022,05,19,06,05,14.70
2022,05,19,06,06,14.20
2022,05,19,06,07,13.90
2022,05,19,06,08,10.00
2022,05,19,06,09,11.00
2022,05,19,06,10,12.00
2022,05,19,06,11,17.90
2022,05,19,06,12,18.10
2022,05,19,06,13,12.70
2022,05,19,06,14,11.90
2022,05,19,06,15,9.50
2022,05,19,06,16,9.20
2022,05,19,06,17,13.20
2022,05,19,06,18,9.90
2022,05,19,06,19,12.70
2022,05,19,06,20,15.80
2022,05,19,06,21,16.20
2022,05,19,06,22,12.20
2022,05,19,06,23,14.10
2022,05,19,06,24,8.00
2022,05,19,06,25,8.60
2022,05,19,06,26,10.30
2022,05,19,06,27,8.40
2022,05,19,06,28,12.00
2022,05,19,06,29,10.50
2022,05,19,06,30,11.00
2022,05,19,06,31,10.20
2022,05,19,06,32,14.60
2022,05,19,06,33,9.50
2022,05,19,06,34,3.20
2022,05,19,06,35,9.60
2022,05,19,06,36,11.90
2022,05,19,06,37,9.50
2022,05,19,06,38,6.60
2022,05,19,06,39,6.50
2022,05,19,06,40,4.50
2022,05,19,06,41,3.10
2022,05,19,06,42,7.70
2022,05,19,06,43,5.80
2022,05,19,06,44,4.40
2022,05,19,06,45,5.50
2022,05,19,06,46,5.20
2022,05,19,06,47,8.30
2022,05,19,06,48,8.30
2022,05,19,06,49,4.50
2022,05,19,06,50,7.20
2022,05,19,06,51,5.20
2022,05,19,06,52,8.00
2022,05,19,06,53,0.50
2022,05,19,06,54,0.00
2022,05,19,06,55,2.70
2022,05,19,06,56,4.60
2022,05,19,06,57,7.30
2022,05,19,06,58,8.10
2022,05,19,06,59,8.10
2022,05,19,07,00,8.10
2022,05,19,07,01,8.10
2022,05,19,07,02,8.40
2022,05,19,07,03,9.20
2022,05,19,07,04,8.70
2022,05,19,07,05,9.00
2022,05,19,07,06,9.50
2022,05,19,07,07,8.00
2022,05,19,07,08,6.70
2022,05,19,07,09,9.20
2022,05,19,07,10,6.90
2022,05,19,07,11,4.80
2022,05,19,07,12,9.70
2022,05,19,07,13,7.30
2022,05,19,07,14,5.80
2022,05,19,07,15,10.00
2022,05,19,07,16,11.10
2022,05,19,07,17,9.80
2022,05,19,07,18,3.50
2022,05,19,07,19,9.20
2022,05,19,07,20,8.60
2022,05,19,07,21,6.10
2022,05,19,07,22,7.10
2022,05,19,07,23,8.00
2022,05,19,07,24,5.90
2022,05,19,07,25,7.40
2022,05,19,07,26,7.70
2022,05,19,07,27,8.40
2022,05,19,07,28,3.40
2022,05,19,07,29,4.30
2022,05,19,07,30,3.30
2022,05,19,07,31,8.40
2022,05,19,07,32,3.00
2022,05,19,07,33,1.40
2022,05,19,07,34,3.60
2022,05,19,07,35,3.60
2022,05,19,07,36,7.60
2022,05,19,07,37,3.30
2022,05,19,07,38,8.10
2022,05,19,07,39,9.00
2022,05,19,07,40,8.50
2022,05,19,07,41,9.40
2022,05,19,07,42,13.40
2022,05,19,07,43,10.20
2022,05,19,07,44,10.50
2022,05,19,07,45,10.10
2022,05,19,07,46,11.00
2022,05,19,07,47,12.20
2022,05,19,07,48,12.10
2022,05,19,07,49,12.10
2022,05,19,07,50,13.20
2022,05,19,07,51,14.70
2022,05,19,07,52,14.20
2022,05,19,07,53,13.50
2022,05,19,07,54,14.30
2022,05,19,07,55,12.90
2022,05,19,07,56,11.30
2022,05,19,07,57,13.70
2022,05,19,07,58,20.60
2022,05,19,07,59,14.60
2022,05,19,08,00,12.40
2022,05,19,08,01,16.20
2022,05,19,08,02,15.20
2022,05,19,08,03,14.50
2022,05,19,08,04,14.30
2022,05,19,08,05,13.80
2022,05,19,08,06,13.80
2022,05,19,08,07,12.00
2022,05,19,08,08,12.60
2022,05,19,08,09,10.50
2022,05,19,08,10,11.50
2022,05,19,08,11,8.80
2022,05,19,08,12,13.10
2022,05,19,08,13,11.50
2022,05,19,08,14,11.50
2022,05,19,08,15,13.10
2022,05,19,08,16,14.90
2022,05,19,08,17,12.00
2022,05,19,08,18,10.00
2022,05,19,08,19,4.60
2022,05,19,08,20,10.60
2022,05,19,08,21,12.80
2022,05,19,08,22,10.60
2022,05,19,08,23,9.40
2022,05,19,08,24,7.30
2022,05,19,08,25,15.00
2022,05,19,08,26,17.80
2022,05,19,08,27,14.70
2022,05,19,08,28,16.20
2022,05,19,08,29,12.70
2022,05,19,08,30,13.20
2022,05,19,08,31,11.90
2022,05,19,08,32,14.60
2022,05,19,08,33,13.50
2022,05,19,08,34,12.60
2022,05,19,08,35,9.10
2022,05,19,08,36,12.60
2022,05,19,08,37,12.10
2022,05,19,08,38,10.10
2022,05,19,08,39,12.00
2022,05,19,08,40,12.60
2022,05,19,08,41,12.60
2022,05,19,08,42,13.00
2022,05,19,08,43,11.70
2022,05,19,08,44,11.80
2022,05,19,08,45,13.20
2022,05,19,08,46,15.10
2022,05,19,08,47,9.60
2022,05,19,08,48,14.10
2022,05,19,08,49,19.90
2022,05,19,08,50,17.40
2022,05,19,08,51,16.10
2022,05,19,08,52,13.00
2022,05,19,08,53,9.60
2022,05,19,08,54,15.40
2022,05,19,08,55,17.20
2022,05,19,08,56,14.20
2022,05,19,08,57,9.60
2022,05,19,08,58,12.10
2022,05,19,08,59,9.50
2022,05,19,09,00,10.30
2022,05,19,09,01,11.90
2022,05,19,09,02,14.20
2022,05,19,09,03,9.50
2022,05,19,09,04,11.50
2022,05,19,09,05,13.20
2022,05,19,09,06,17.30
2022,05,19,09,07,19.40
2022,05,19,09,08,13.20
2022,05,19,09,09,14.70
2022,05,19,09,10,14.10
2022,05,19,09,11,19.10
2022,05,19,09,12,12.20
2022,05,19,09,13,12.30
2022,05,19,09,14,11.30
2022,05,19,09,15,9.20
2022,05,19,09,16,14.20
2022,05,19,09,17,10.60
2022,05,19,09,18,14.50
2022,05,19,09,19,12.80
2022,05,19,09,20,12.40
2022,05,19,09,21,11.40
2022,05,19,09,22,8.40
2022,05,19,09,23,13.70
2022,05,19,09,24,17.10
2022,05,19,09,25,16.20
2022,05,19,09,26,14.30
2022,05,19,09,27,13.50
2022,05,19,09,28,12.50
2022,05,19,09,29,12.60
2022,05,19,09,30,14.50
2022,05,19,09,31,11.90
2022,05,19,09,32,12.80
2022,05,19,09,33,14.80
2022,05,19,09,34,8.70
2022,05,19,09,35,14.00
2022,05,19,09,36,11.10
2022,05,19,09,37,15.30
2022,05,19,09,38,10.30
2022,05,19,09,39,10.70
2022,05,19,09,40,14.80
2022,05,19,09,41,16.40
2022,05,19,09,42,8.00
2022,05,19,09,43,8.20
2022,05,19,09,44,10.30
2022,05,19,09,45,10.80
2022,05,19,09,46,13.30
2022,05,19,09,47,10.80
2022,05,19,09,48,9.20
2022,05,19,09,49,11.70
2022,05,19,09,50,14.00
2022,05,19,09,51,17.40
2022,05,19,09,52,20.90
2022,05,19,09,53,14.10
2022,05,19,09,54,14.50
2022,05,19,09,55,11.10
2022,05,19,09,56,16.30
2022,05,19,09,57,15.20
2022,05,19,09,58,14.20
2022,05,19,09,59,15.70
2022,05,19,10,00,18.90
2022,05,19,10,01,15.00
2022,05,19,10,02,14.90
2022,05,19,10,03,17.50
2022,05,19,10,04,16.50
2022,05,19,10,05,16.70
2022,05,19,10,06,19.10
2022,05,19,10,07,18.40
2022,05,19,10,08,18.40
2022,05,19,10,09,15.90
2022,05,19,10,10,15.20
2022,05,19,10,11,15.60
2022,05,19,10,12,16.40
2022,05,19,10,13,18.10
2022,05,19,10,14,14.80
2022,05,19,10,15,13.60
2022,05,19,10,16,16.70
2022,05,19,10,17,19.30
2022,05,19,10,18,19.50
2022,05,19,10,19,21.00
2022,05,19,10,20,18.10
2022,05,19,10,21,20.10
2022,05,19,10,22,18.10
2022,05,19,10,23,18.50
2022,05,19,10,24,16.30
2022,05,19,10,25,16.20
2022,05,19,10,26,11.30
2022,05,19,10,27,21.60
2022,05,19,10,28,17.10
2022,05,19,10,29,18.20
2022,05,19,10,30,16.30
2022,05,19,10,31,19.90
2022,05,19,10,32,14.50
2022,05,19,10,33,15.10
2022,05,19,10,34,17.50
2022,05,19,10,35,14.40
2022,05,19,10,36,11.70
2022,05,19,10,37,10.20
2022,05,19,10,38,7.60
2022,05,19,10,39,10.90
2022,05,19,10,40,18.50
2022,05,19,10,41,14.00
2022,05,19,10,42,12.20
2022,05,19,10,43,6.30
2022,05,19,10,44,6.80
2022,05,19,10,45,8.00
2022,05,19,10,46,9.70
2022,05,19,10,47,14.20
2022,05,19,10,48,15.00
2022,05,19,10,49,10.50
2022,05,19,10,50,8.10
2022,05,19,10,51,13.40
2022,05,19,10,52,14.70
2022,05,19,10,53,11.60
2022,05,19,10,54,15.20
2022,05,19,10,55,11.50
2022,05,19,10,56,10.80
2022,05,19,10,57,10.10
2022,05,19,10,58,14.70
2022,05,19,10,59,13.80
2022,05,19,11,00,19.60
2022,05,19,11,01,10.20
2022,05,19,11,02,17.80
2022,05,19,11,03,20.50
2022,05,19,11,04,19.20
2022,05,19,11,05,18.10
2022,05,19,11,06,22.30
2022,05,19,11,07,13.50
2022,05,19,11,08,14.90
2022,05,19,11,09,17.80
2022,05,19,11,10,18.10
2022,05,19,11,11,13.40
2022,05,19,11,12,19.40
2022,05,19,11,13,15.30
2022,05,19,11,14,21.00
2022,05,19,11,15,18.20
2022,05,19,11,16,15.20
2022,05,19,11,17,14.10
2022,05,19,11,18,14.20
2022,05,19,11,19,22.00
2022,05,19,11,20,17.10
2022,05,19,11,21,20.90
2022,05,19,11,22,16.80
2022,05,19,11,23,18.40
2022,05,19,11,24,15.40
2022,05,19,11,25,17.40
2022,05,19,11,26,18.80
2022,05,19,11,27,20.40
2022,05,19,11,28,14.20
2022,05,19,11,29,17.30
2022,05,19,11,30,19.70
2022,05,19,11,31,15.00
2022,05,19,11,32,18.90
2022,05,19,11,33,15.80
2022,05,19,11,34,16.10
2022,05,19,11,35,18.10
2022,05,19,11,36,19.00
2022,05,19,11,37,17.50
2022,05,19,11,38,16.80
2022,05,19,11,39,17.40
2022,05,19,11,40,13.70
2022,05,19,11,41,18.80
2022,05,19,11,42,17.60
2022,05,19,11,43,17.30
2022,05,19,11,44,19.20
2022,05,19,11,45,16.10
2022,05,19,11,46,13.10
2022,05,19,11,47,15.80
2022,05,19,11,48,18.40
2022,05,19,11,49,21.40
2022,05,19,11,50,16.80
2022,05,19,11,51,13.60
2022,05,19,11,52,16.00
2022,05,19,11,53,16.30
2022,05,19,11,54,14.00
2022,05,19,11,55,20.40
2022,05,19,11,56,17.70
2022,05,19,11,57,16.60
2022,05,19,11,58,15.80
2022,05,19,11,59,18.70
2022,05,19,12,00,19.60
2022,05,19,12,01,18.30
2022,05,19,12,02,17.50
2022,05,19,12,03,17.50
2022,05,19,12,04,19.40
2022,05,19,12,05,15.00
2022,05,19,12,06,20.70
2022,05,19,12,07,18.60
2022,05,19,12,08,14.90
2022,05,19,12,09,15.30
2022,05,19,12,10,16.10
2022,05,19,12,11,17.30
2022,05,19,12,12,13.40
2022,05,19,12,13,15.30
2022,05,19,12,14,18.10
2022,05,19,12,15,15.20
2022,05,19,12,16,16.20
2022,05,19,12,17,16.40
2022,05,19,12,18,15.00
2022,05,19,12,19,11.90
2022,05,19,12,20,11.50
2022,05,19,12,21,13.20
2022,05,19,12,22,10.90
2022,05,19,12,23,8.30
2022,05,19,12,24,6.80
2022,05,19,12,25,12.20
2022,05,19,12,26,15.00
2022,05,19,12,27,12.10
2022,05,19,12,28,16.90
2022,05,19,12,29,18.30
2022,05,19,12,30,13.90
2022,05,19,12,31,13.50
2022,05,19,12,32,9.30
2022,05,19,12,33,12.60
2022,05,19,12,34,11.80
2022,05,19,12,35,14.40
2022,05,19,12,36,10.80
2022,05,19,12,37,11.90
2022,05,19,12,38,13.90
2022,05,19,12,39,14.30
2022,05,19,12,40,16.70
2022,05,19,12,41,15.20
2022,05,19,12,42,17.80
2022,05,19,12,43,12.90
2022,05,19,12,44,12.40
2022,05,19,12,45,12.60
2022,05,19,12,46,13.50
2022,05,19,12,47,15.40
2022,05,19,12,48,17.00
2022,05,19,12,49,12.90
2022,05,19,12,50,18.40
2022,05,19,12,51,14.20
2022,05,19,12,52,13.30
2022,05,19,12,53,18.40
2022,05,19,12,54,15.40
2022,05,19,12,55,13.00
2022,05,19,12,56,11.10
2022,05,19,12,57,14.00
2022,05,19,12,58,22.30
2022,05,19,12,59,18.80
2022,05,19,13,00,14.50
2022,05,19,13,01,15.50
2022,05,19,13,02,9.80
2022,05,19,13,03,6.30
2022,05,19,13,04,10.20
2022,05,19,13,05,9.80
2022,05,19,13,06,8.20
2022,05,19,13,07,13.80
2022,05,19,13,08,12.80
2022,05,19,13,09,13.40
2022,05,19,13,10,11.10
2022,05,19,13,11,12.90
2022,05,19,13,12,11.10
2022,05,19,13,13,11.80
2022,05,19,13,14,7.60
2022,05,19,13,15,7.80
2022,05,19,13,16,11.40
2022,05,19,13,17,13.20
2022,05,19,13,18,11.90
2022,05,19,13,19,11.50
2022,05,19,13,20,13.20
2022,05,19,13,21,12.50
2022,05,19,13,22,6.40
2022,05,19,13,23,10.10
2022,05,19,13,24,7.70
2022,05,19,13,25,13.70
2022,05,19,13,26,7.20
2022,05,19,13,27,4.40
2022,05,19,13,28,10.30
2022,05,19,13,29,14.20
2022,05,19,13,30,11.30
2022,05,19,13,31,13.60
2022,05,19,13,32,13.90
2022,05,19,13,33,12.30
2022,05,19,13,34,13.50
2022,05,19,13,35,16.20
2022,05,19,13,36,13.80
2022,05,19,13,37,14.60
2022,05,19,13,38,14.70
2022,05,19,13,39,15.90
2022,05,19,13,40,17.50
2022,05,19,13,41,15.60
2022,05,19,13,42,11.50
2022,05,19,13,43,15.30
2022,05,19,13,44,8.40
2022,05,19,13,45,8.50
2022,05,19,13,46,16.20
2022,05,19,13,47,12.60
2022,05,19,13,48,11.90
2022,05,19,13,49,11.80
2022,05,19,13,50,12.10
2022,05,19,13,51,11.50
2022,05,19,13,52,11.50
2022,05,19,13,53,12.80
2022,05,19,13,54,10.60
2022,05,19,13,55,8.90
2022,05,19,13,56,9.30
2022,05,19,13,57,8.90
2022,05,19,13,58,10.30
2022,05,19,13,59,11.00
2022,05,19,14,00,9.20
2022,05,19,14,01,10.30
2022,05,19,14,02,9.20
2022,05,19,14,03,12.80
2022,05,19,14,04,13.30
2022,05,19,14,05,13.10
2022,05,19,14,06,13.30
2022,05,19,14,07,9.50
2022,05,19,14,08,11.50
2022,05,19,14,09,11.00
2022,05,19,14,10,11.90
2022,05,19,14,11,7.40
2022,05,19,14,12,9.10
2022,05,19,14,13,11.10
2022,05,19,14,14,11.40
2022,05,19,14,15,17.00
2022,05,19,14,16,15.10
2022,05,19,14,17,12.80
2022,05,19,14,18,13.10
2022,05,19,14,19,14.50
2022,05,19,14,20,14.50
2022,05,19,14,21,14.50
2022,05,19,14,22,17.30
2022,05,19,14,23,15.50
2022,05,19,14,24,10.90
2022,05,19,14,25,10.50
2022,05,19,14,26,7.40
2022,05,19,14,27,4.80
2022,05,19,14,28,15.80
2022,05,19,14,29,10.70
2022,05,19,14,30,6.70
2022,05,19,14,31,6.10
2022,05,19,14,32,4.60
2022,05,19,14,33,10.00
2022,05,19,14,34,10.70
2022,05,19,14,35,10.50
2022,05,19,14,36,11.10
2022,05,19,14,37,8.70
2022,05,19,14,38,7.00
2022,05,19,14,39,9.50
2022,05,19,14,40,8.40
2022,05,19,14,41,11.10
2022,05,19,14,42,9.80
2022,05,19,14,43,10.50
2022,05,19,14,44,14.20
2022,05,19,14,45,15.60
2022,05,19,14,46,16.20
2022,05,19,14,47,12.50
2022,05,19,14,48,10.70
2022,05,19,14,49,12.20
2022,05,19,14,50,10.60
2022,05,19,14,51,6.40
2022,05,19,14,52,8.40
2022,05,19,14,53,12.30
2022,05,19,14,54,13.00
2022,05,19,14,55,13.00
2022,05,19,14,56,14.20
2022,05,19,14,57,18.00
2022,05,19,14,58,13.30
2022,05,19,14,59,10.00
2022,05,19,15,00,17.00
2022,05,19,15,01,20.40
2022,05,19,15,02,20.90
2022,05,19,15,03,16.50
2022,05,19,15,04,17.60
2022,05,19,15,05,16.50
2022,05,19,15,06,16.00
2022,05,19,15,07,19.40
2022,05,19,15,08,17.60
2022,05,19,15,09,14.40
2022,05,19,15,10,12.30
2022,05,19,15,11,17.90
2022,05,19,15,12,20.80
2022,05,19,15,13,20.40
2022,05,19,15,14,19.60
2022,05,19,15,15,20.60
2022,05,19,15,16,17.80
2022,05,19,15,17,18.10
2022,05,19,15,18,17.60
2022,05,19,15,19,14.10
2022,05,19,15,20,15.00
2022,05,19,15,21,13.90
2022,05,19,15,22,15.80
2022,05,19,15,23,12.90
2022,05,19,15,24,13.90
2022,05,19,15,25,13.20
2022,05,19,15,26,19.00
2022,05,19,15,27,14.40
2022,05,19,15,28,12.40
2022,05,19,15,29,14.20
2022,05,19,15,30,14.10
2022,05,19,15,31,13.80
2022,05,19,15,32,13.40
2022,05,19,15,33,13.10
2022,05,19,15,34,10.40
2022,05,19,15,35,10.30
2022,05,19,15,36,11.00
2022,05,19,15,37,9.70
2022,05,19,15,38,14.10
2022,05,19,15,39,12.60
2022,05,19,15,40,16.00
2022,05,19,15,41,14.50
2022,05,19,15,42,12.40
2022,05,19,15,43,9.50
2022,05,19,15,44,10.70
2022,05,19,15,45,17.30
2022,05,19,15,46,17.30
2022,05,19,15,47,12.30
2022,05,19,15,48,11.80
2022,05,19,15,49,9.90
2022,05,19,15,50,4.10
2022,05,19,15,51,15.10
2022,05,19,15,52,19.20
2022,05,19,15,53,16.80
2022,05,19,15,54,16.50
2022,05,19,15,55,11.70
2022,05,19,15,56,10.70
2022,05,19,15,57,14.50
2022,05,19,15,58,14.80
2022,05,19,15,59,11.10
2022,05,19,16,00,10.30
2022,05,19,16,01,13.00
2022,05,19,16,02,13.50
2022,05,19,16,03,9.50
2022,05,19,16,04,10.60
2022,05,19,16,05,15.50
2022,05,19,16,06,16.50
2022,05,19,16,07,18.30
2022,05,19,16,08,16.30
2022,05,19,16,09,13.70
2022,05,19,16,10,13.90
2022,05,19,16,11,13.20
2022,05,19,16,12,14.60
2022,05,19,16,13,18.30
2022,05,19,16,14,16.90
2022,05,19,16,15,10.50
2022,05,19,16,16,18.20
2022,05,19,16,17,19.60
2022,05,19,16,18,17.50
2022,05,19,16,19,18.10
2022,05,19,16,20,18.00
2022,05,19,16,21,18.90
2022,05,19,16,22,15.70
2022,05,19,16,23,11.20
2022,05,19,16,24,12.10
2022,05,19,16,25,13.80
2022,05,19,16,26,14.50
2022,05,19,16,27,10.30
2022,05,19,16,28,10.10
2022,05,19,16,29,16.00
2022,05,19,16,30,17.30
2022,05,19,16,31,10.20
2022,05,19,16,32,13.70
2022,05,19,16,33,11.90
2022,05,19,16,34,13.10
2022,05,19,16,35,12.20
2022,05,19,16,36,12.40
2022,05,19,16,37,19.60
2022,05,19,16,38,14.90
2022,05,19,16,39,8.10
2022,05,19,16,40,12.70
2022,05,19,16,41,9.90
2022,05,19,16,42,13.90
2022,05,19,16,43,12.30
2022,05,19,16,44,9.10
2022,05,19,16,45,9.80
2022,05,19,16,46,2.70
2022,05,19,16,47,10.30
2022,05,19,16,48,13.60
2022,05,19,16,49,12.80
2022,05,19,16,50,11.60
2022,05,19,16,51,14.10
2022,05,19,16,52,11.00
2022,05,19,16,53,9.00
2022,05,19,16,54,12.30
2022,05,19,16,55,10.20
2022,05,19,16,56,11.10
2022,05,19,16,57,12.30
2022,05,19,16,58,11.90
2022,05,19,16,59,11.90
2022,05,19,17,00,16.30
2022,05,19,17,01,12.90
2022,05,19,17,02,13.10
2022,05,19,17,03,11.50
2022,05,19,17,04,11.40
2022,05,19,17,05,10.10
2022,05,19,17,06,9.10
2022,05,19,17,07,12.90
2022,05,19,17,08,13.40
2022,05,19,17,09,11.50
2022,05,19,17,10,13.60
2022,05,19,17,11,17.70
2022,05,19,17,12,10.60
2022,05,19,17,13,9.40
2022,05,19,17,14,6.30
2022,05,19,17,15,7.90
2022,05,19,17,16,7.50
2022,05,19,17,17,10.70
2022,05,19,17,18,13.50
2022,05,19,17,19,12.70
2022,05,19,17,20,11.60
2022,05,19,17,21,11.90
2022,05,19,17,22,12.80
2022,05,19,17,23,11.50
2022,05,19,17,24,15.60
2022,05,19,17,25,8.10
2022,05,19,17,26,9.10
2022,05,19,17,27,9.50
2022,05,19,17,28,9.40
2022,05,19,17,29,9.90
2022,05,19,17,30,5.40
2022,05,19,17,31,6.80
2022,05,19,17,32,11.00